Location: Champaign/Urbana Astronomical Society Observatory
(40.0333°N, 88.2833°W)
Time: 13:20:50
(UTC-05:00)

Envisat - Visible Passes

Search period start: 19 April 2019 00:00
Search period end: 29 April 2019 00:00
Orbit: 764 x 766 km, 98.2° (Epoch: 19 April)

Date Brightness Start Highest point End Pass type
(mag) Time Alt. Az. Time Alt. Az. Time Alt. Az.
20 Apr 5.8 20:44:17 10° SW 20:47:27 16° W 20:50:37 10° NW visible
21 Apr 4.7 20:05:45 10° SSW 20:10:25 37° W 20:15:07 10° NNW visible
23 Apr 5.6 20:32:20 10° SW 20:36:07 21° W 20:39:56 10° NW visible
25 Apr 6.0 21:00:18 10° WSW 21:01:56 11° W 21:03:33 10° WNW visible
26 Apr 5.3 20:20:34 10° SSW 20:24:48 26° W 20:29:05 10° NW visible
28 Apr 5.8 20:47:44 10° SW 20:50:34 15° W 20:53:26 10° NW visible
